Theta_e
312 310 309 309 309 310 312 312 312 310 307 306 308 308 309 308 306 305 305 304 304 304 303 302 301 300 300 300 299 298 298 297 296 296 295 295 295 296 295 296 298 299 301 300
312 308 307 310 310 310 311 311 310 309 307 306 309 309 309 307 305 304 304 304 304 304 303 302 301 300 299 299 299 298 298 297 296 295 295 294 295 295 296 296 297 299 300 300
310 307 307 309 310 311 311 308 308 307 308 309 309 311 308 306 306 306 306 306 304 303 302 302 300 299 299 298 298 297 297 296 296 295 294 294 295 295 296 295 296 299 300 301
309 307 308 311 310 308 313 307 307 308 310 312 309 312 310 308 308 308 307 306 304 303 302 301 300 299 298 297 297 297 296 296 295 295 295 295 295 295 295 295 297 298 300 301
309 309 309 311 307 307 309 307 307 308 309 312 312 311 312 313 310 308 306 305 305 303 302 301 300 298 297 297 297 296 296 296 295 295 294 295 295 295 295 295 297 297 297 299
309 307 307 307 308 308 308 310 311 310 310 313 312 311 316 314 309 307 306 305 305 303 302 301 299 298 297 297 296 296 296 295 295 294 294 294 294 295 295 296 296 296 296 297
310 309 307 307 311 310 312 314 317 316 314 320 311 312 323 313 308 307 307 306 304 303 302 301 299 298 297 297 296 296 295 295 294 294 294 294 294 294 294 295 296 296 295 296
315 314 309 307 307 307 311 312 316 318 319 318 313 321 325 311 308 309 308 306 304 302 302 301 299 298 298 297 296 296 295 294 294 294 294 294 294 294 294 295 296 296 296 297
315 313 306 306 306 307 310 312 309 312 318 317 320 321 315 312 311 310 309 307 304 302 302 301 299 298 297 297 296 296 295 295 295 294 294 294 294 294 295 295 296 295 295 297
314 314 310 306 305 306 308 307 314 318 322 319 324 322 325 314 311 310 310 308 305 302 301 301 299 298 297 296 296 296 295 295 295 294 294 294 294 294 295 295 296 296 296 297
313 314 314 309 310 312 310 312 313 312 315 318 321 327 320 312 311 311 310 308 305 302 301 300 299 298 297 296 296 296 295 295 294 294 294 294 295 295 296 296 295 296 295 295
311 312 316 316 310 308 308 310 312 314 318 317 317 323 317 312 310 311 309 308 305 302 301 300 299 298 297 296 296 295 295 295 294 294 294 295 294 296 295 296 295 295 294 295
312 317 318 314 312 311 312 312 311 311 314 318 317 325 314 312 314 312 310 307 305 303 301 300 299 299 298 297 296 295 295 294 294 294 294 295 294 296 295 296 296 296 294 294
307 313 319 320 320 317 318 315 313 312 313 321 320 319 318 315 315 313 310 307 305 303 301 300 300 299 298 298 297 295 295 294 293 293 294 294 294 294 295 294 294 294 294 294
310 315 316 316 315 315 316 315 314 314 315 315 319 317 314 313 313 311 311 308 306 303 301 300 300 299 298 297 297 296 295 294 293 293 293 293 294 294 295 294 294 295 295 294
312 314 314 315 315 314 314 314 313 314 315 313 311 312 312 314 313 314 312 310 308 304 301 300 299 298 298 297 297 296 295 294 293 293 293 293 293 295 295 293 294 295 295 294
313 314 316 316 316 318 322 321 319 316 314 317 317 316 318 317 315 315 315 311 308 305 303 300 300 299 298 297 297 296 295 294 293 293 293 293 293 294 294 293 294 294 294 293
314 314 315 317 317 326 322 317 315 318 317 316 315 315 317 316 315 314 313 312 310 306 303 301 299 299 298 297 297 295 295 294 293 293 293 293 292 293 295 293 294 294 294 293
311 312 316 321 319 318 317 316 315 315 317 316 317 317 317 316 313 313 313 310 308 306 303 301 300 299 298 297 296 295 295 294 294 293 293 293 292 293 294 294 294 294 293 292
311 311 316 319 320 322 319 315 312 313 319 316 315 315 315 314 317 318 310 307 305 303 302 301 300 299 297 297 296 295 295 295 294 294 293 293 292 292 294 294 294 294 293 292
312 313 315 316 318 319 316 316 311 316 323 317 316 317 317 321 320 317 314 309 305 304 302 301 300 299 298 297 296 296 295 295 295 294 293 293 292 292 293 294 294 293 293 292
317 318 318 317 320 324 317 311 314 322 319 317 317 317 317 318 317 315 313 311 307 305 303 301 300 299 298 297 296 296 296 295 295 294 293 293 292 292 292 293 294 293 293 292
319 319 326 321 322 320 318 317 316 316 317 318 317 316 315 315 315 314 313 312 309 306 304 303 301 300 298 297 296 296 296 295 295 294 293 293 292 292 292 293 294 293 293 293
320 318 319 319 317 318 318 318 318 317 317 318 317 316 315 315 314 314 313 312 310 308 306 304 303 301 299 298 297 296 295 295 295 294 293 293 292 292 292 292 293 294 293 293
318 318 320 321 320 319 318 318 318 317 317 316 316 316 316 315 314 313 313 312 310 309 307 305 304 302 301 299 298 296 295 295 294 294 294 293 293 292 292 292 293 294 293 293
317 318 320 321 319 321 320 318 317 317 316 316 315 315 314 314 314 313 312 311 310 309 308 306 304 303 302 300 299 297 296 295 294 294 294 293 293 292 293 292 292 292 293 293
Wind_Speed
14 12 12 13 10 6 9 8 9 7 5 5 2 7 4 5 2 6 10 13 14 12 17 15 22 22 28 11 12 11 3 8 14 18 14 14 17 20 18 19 15 13 10 13
11 13 8 4 10 4 8 11 9 2 2 2 9 9 3 6 8 6 9 10 14 14 12 17 17 19 19 21 17 9 2 3 7 8 12 14 15 20 20 17 14 14 11 8
15 5 3 4 10 13 10 9 7 6 12 8 12 6 5 8 4 5 5 11 13 13 13 13 17 17 16 17 18 15 9 12 9 12 11 10 15 16 17 17 19 16 13 3
6 2 5 7 8 10 2 10 7 7 9 6 3 6 9 2 7 12 11 11 12 13 11 15 16 17 17 15 17 10 10 8 13 10 15 12 14 12 17 19 17 19 20 12
3 3 7 8 6 7 5 7 7 6 8 9 2 5 6 10 12 14 13 12 11 10 11 10 15 14 15 12 12 10 9 9 11 9 5 9 13 15 18 17 18 14 15 16
6 2 3 6 7 6 11 13 16 8 6 6 4 4 3 8 12 13 12 13 11 10 9 13 13 14 13 13 11 11 8 6 9 9 10 10 13 15 15 17 17 16 15 16
8 5 4 6 10 3 13 16 3 5 5 2 2 2 2 8 9 7 10 12 12 10 8 8 10 12 11 11 10 9 11 9 8 8 10 12 12 16 12 13 13 15 19 18
7 3 6 7 5 5 8 7 3 4 6 8 4 4 1 1 7 10 10 10 11 10 7 7 8 7 10 10 9 9 11 10 8 9 10 11 11 11 12 12 13 12 13 14
7 3 5 5 3 5 6 4 4 4 8 5 3 4 2 3 9 10 11 11 9 9 7 7 8 5 6 8 8 7 8 9 9 8 9 11 12 12 11 12 12 13 11 11
4 4 1 3 3 3 2 3 2 2 5 5 4 6 3 8 10 11 11 10 9 9 9 7 7 6 5 4 6 5 6 8 9 10 10 10 10 10 12 12 11 9 13 14
6 2 3 3 6 4 3 3 2 2 3 3 5 2 2 3 6 9 12 10 8 7 7 6 7 6 6 3 3 3 4 7 9 7 6 6 8 10 10 11 11 11 13 16
4 4 5 6 6 3 2 5 3 2 2 5 3 5 3 2 4 10 10 10 8 6 6 6 7 4 3 4 5 4 2 5 7 6 5 6 8 9 11 10 14 11 13 14
5 2 6 6 3 4 3 2 4 6 2 6 3 2 6 6 7 11 10 9 8 7 5 5 6 7 5 3 5 4 3 5 5 5 4 4 6 9 9 12 11 9 12 14
2 3 6 6 12 13 12 12 9 7 4 4 10 17 13 12 10 12 8 7 7 7 6 5 4 6 5 2 3 4 2 2 4 4 6 2 3 5 6 9 10 9 9 11
2 5 9 13 17 18 16 17 15 14 12 6 6 9 16 15 11 6 6 6 8 8 7 5 4 4 4 5 2 3 3 1 2 4 5 6 5 3 3 5 7 9 8 9
6 4 10 13 16 2 12 17 14 16 14 17 18 22 19 14 8 6 4 6 6 8 7 6 5 5 5 5 4 4 2 3 2 4 4 4 7 2 3 6 8 8 7 9
5 4 6 5 10 10 11 8 12 11 11 7 12 17 7 10 10 8 7 7 6 7 7 7 5 5 4 4 3 3 4 5 4 4 5 4 4 5 3 5 8 7 6 6
7 7 5 6 11 2 8 5 3 7 13 14 12 14 8 10 11 13 10 9 8 7 7 6 6 5 4 4 4 4 4 4 5 6 6 5 4 6 0 5 7 6 7 6
6 8 4 3 6 14 15 1 3 4 7 11 14 13 13 13 5 13 7 4 4 5 7 7 6 6 5 6 6 6 6 6 7 7 7 6 4 6 6 5 4 6 7 6
6 7 6 4 4 4 5 6 2 1 5 5 3 6 3 3 3 4 3 3 4 6 6 9 8 7 7 8 8 9 9 9 9 9 8 7 6 7 8 5 5 5 6 7
5 6 11 8 5 8 13 5 5 2 2 1 7 8 5 4 6 7 5 4 8 9 10 9 10 10 10 10 11 11 11 12 10 9 8 9 9 9 9 8 6 7 7 7
10 5 5 6 5 8 8 9 6 4 5 8 11 9 10 5 6 7 8 8 10 11 12 12 12 13 13 12 12 13 14 13 11 11 10 10 11 11 10 11 9 9 8 9
10 8 4 8 6 8 7 8 9 11 12 12 12 12 10 12 10 9 9 10 12 14 14 15 16 15 14 15 16 16 15 13 12 13 12 12 12 12 12 13 12 12 12 11
16 14 12 10 13 16 17 16 18 18 19 14 15 11 10 12 10 10 9 8 11 15 15 16 16 16 16 18 18 19 16 15 15 15 14 14 14 15 15 15 15 15 15 14
9 12 15 16 21 18 20 15 15 11 10 10 11 11 11 10 11 11 10 9 12 14 16 17 18 18 19 18 20 20 19 17 17 17 16 16 16 17 17 18 18 18 19 19
14 23 12 14 18 12 15 12 16 15 14 13 10 10 11 12 10 10 9 11 12 13 15 16 18 18 18 20 20 20 21 20 20 19 18 19 18 18 18 18 19 21 24 22
Wind_Direction
55 72 42 34 24 22 14 348 22 52 65 324 310 299 294 110 270 306 322 334 318 317 326 342 341 338 339 306 281 278 307 26 2 324 343 343 331 325 321 318 321 322 336 341
118 62 17 347 31 16 29 11 3 146 161 270 313 306 284 62 15 325 305 304 344 338 340 349 347 348 338 338 323 316 223 7 330 312 329 348 327 310 311 313 330 318 341 341
60 60 336 345 37 351 73 12 329 317 314 255 306 233 194 128 271 223 355 2 347 343 348 352 351 349 344 347 1 357 60 34 338 344 342 344 324 322 323 337 319 339 325 41
67 85 330 351 45 355 29 5 309 303 327 353 31 329 108 66 320 2 14 7 346 345 352 348 355 352 349 354 344 51 18 23 326 347 358 345 319 320 322 327 344 347 26 33
84 17 355 21 3 344 3 317 301 317 306 296 144 325 117 43 351 355 354 341 341 354 352 2 357 348 338 358 21 45 38 28 318 327 334 326 331 325 327 329 334 337 357 351
103 93 17 2 305 261 289 272 236 230 252 244 7 23 303 14 356 335 340 328 346 349 356 7 357 351 358 1 9 8 21 333 327 348 337 326 330 331 331 342 337 352 344 347
159 113 107 335 328 205 343 342 49 222 209 11 341 322 62 6 340 326 331 348 351 357 13 352 359 355 353 3 0 358 12 348 334 339 343 343 337 327 328 335 350 344 344 336
337 192 11 26 40 319 321 345 32 301 342 313 185 234 334 185 280 10 349 358 352 354 4 0 11 354 352 353 2 11 360 351 355 13 0 341 331 323 342 333 334 331 330 326
352 82 128 59 352 341 348 33 345 277 255 266 232 137 151 202 9 0 354 357 354 347 355 14 0 25 356 351 352 23 1 339 358 1 348 346 2 358 338 331 337 343 339 335
25 299 59 106 234 168 339 335 229 228 316 317 328 305 34 4 348 350 343 353 350 355 351 0 3 18 12 354 337 13 345 350 358 7 16 6 354 342 332 340 349 341 347 353
348 269 148 208 192 3 185 205 201 234 263 306 314 310 249 315 347 336 346 350 354 350 341 354 2 13 348 335 312 335 11 337 18 356 16 11 359 342 346 356 359 10 6 4
52 313 283 348 76 14 308 303 271 287 58 282 267 272 255 198 302 4 345 343 349 340 348 351 343 328 290 328 318 344 30 344 10 355 27 26 1 357 13 10 2 17 12 0
3 260 297 150 164 169 213 266 239 265 138 243 289 273 191 175 17 353 338 336 336 330 328 343 344 333 327 322 313 323 347 7 346 346 1 26 1 6 10 12 7 22 9 2
332 262 255 272 296 301 296 281 223 221 253 287 252 276 297 338 338 327 324 325 312 317 317 311 312 329 327 301 281 312 304 19 334 325 336 39 339 2 12 21 18 9 357 354
249 267 271 280 291 291 280 276 264 238 211 236 279 316 291 301 288 251 231 283 301 301 302 304 309 319 311 311 255 259 238 224 304 311 327 342 350 351 13 5 357 345 348 5
187 276 307 292 288 330 281 273 262 255 240 225 252 274 279 274 299 177 268 305 277 286 288 288 292 291 300 300 271 280 220 237 275 289 310 323 320 355 357 332 342 349 24 5
224 258 322 271 319 304 284 272 234 232 234 212 236 251 295 292 313 303 271 256 260 253 267 272 273 277 281 287 267 247 246 210 229 268 280 310 312 318 355 315 316 340 14 19
250 241 262 288 304 291 252 274 235 256 258 223 223 247 239 245 260 269 260 204 210 242 244 247 245 245 230 228 227 220 227 231 234 252 266 282 295 301 254 306 298 342 355 11
213 262 267 260 285 291 284 83 176 216 275 267 249 256 230 227 293 288 278 194 218 208 212 230 233 224 230 218 216 219 225 229 245 251 256 253 267 273 291 293 337 330 335 343
208 232 257 222 248 263 260 124 85 1 267 108 74 333 310 213 240 281 152 184 222 220 214 200 225 216 221 220 214 220 234 238 238 248 253 247 245 259 275 283 288 305 308 316
188 213 226 236 258 271 262 239 139 237 40 122 333 332 309 257 212 234 271 207 225 220 217 214 210 223 225 221 214 224 232 237 247 249 245 243 244 254 256 265 265 273 287 297
182 196 201 215 236 253 230 136 205 258 338 321 317 316 318 250 220 226 243 226 231 224 223 215 221 219 223 229 226 229 234 240 237 235 238 242 240 247 255 243 247 258 261 276
230 209 223 199 225 240 191 246 241 257 261 283 289 297 285 287 277 259 227 225 225 231 220 223 215 223 222 219 227 235 238 239 237 227 236 241 241 245 250 250 248 247 250 250
258 248 248 276 258 263 265 289 294 302 291 277 248 254 269 274 272 268 268 247 220 221 228 226 219 220 222 218 223 233 237 234 233 235 235 238 242 242 244 249 248 240 248 249
255 281 272 263 256 259 267 269 265 279 289 292 287 292 267 275 272 272 263 252 244 233 219 221 225 221 223 227 222 224 227 234 233 232 233 235 239 240 242 246 248 243 241 240
243 250 247 255 265 280 281 281 313 309 308 307 293 287 289 291 272 264 269 268 254 245 224 220 219 228 228 222 229 224 220 223 230 233 232 231 235 239 242 244 248 250 248 248